Estación de Longaví Norte

Ultimos registro cada 15 minutos 79
Estación Fecha / Hora Temperatura Humedad Lluvia Velocidad Dirección Radiación Presion
79 Longaví Norte 05-05-2026 19:30 15,4 86,4 0 0,3 42 0,6 995
78 Longaví Norte 05-05-2026 19:15 15 91,2 0 0 59 0,6 994,7
77 Longaví Norte 05-05-2026 19:00 15,4 89,4 0 0 18 0,6 994,9
76 Longaví Norte 05-05-2026 18:45 14,5 93,7 0 0 48 0,6 994,7
75 Longaví Norte 05-05-2026 18:30 14,2 94,3 0 0 65 0,6 994,6
74 Longaví Norte 05-05-2026 18:15 14,6 92,4 0 0 73 0,6 994,8
73 Longaví Norte 05-05-2026 18:00 15,3 89,5 0 0 73 0,6 995
72 Longaví Norte 05-05-2026 17:45 15,3 90,7 0 0 73 5,6 994,7
71 Longaví Norte 05-05-2026 17:30 15,6 89,6 0 0 73 9,4 994,5
70 Longaví Norte 05-05-2026 17:15 16,2 86,3 0 0 73 19,4 994,7
69 Longaví Norte 05-05-2026 17:00 16,5 89,3 0 0 73 33,1 994,6
68 Longaví Norte 05-05-2026 16:45 17 86,2 0 0 72 41,9 994,6
67 Longaví Norte 05-05-2026 16:30 18 83 0 0 69 55,6 994,7
66 Longaví Norte 05-05-2026 16:15 18,8 81,7 0 0 65 71,9 994,2
65 Longaví Norte 05-05-2026 16:00 19,6 82,2 0 0 52 125,6 994,1
64 Longaví Norte 05-05-2026 15:45 18,8 81 0 0 14 124,4 993,9
63 Longaví Norte 05-05-2026 15:30 18,7 80,1 0 0 37 78,1 993,8
62 Longaví Norte 05-05-2026 15:15 19,3 79,8 0 0 39 94,4 993,3
61 Longaví Norte 05-05-2026 15:00 19,7 79,3 0 0 354 131,9 993,3
60 Longaví Norte 05-05-2026 14:45 19,6 73,9 0 0,7 14 158,1 993,6
59 Longaví Norte 05-05-2026 14:30 19,6 71,5 0 0,7 355 175,6 993,1
58 Longaví Norte 05-05-2026 14:15 20,6 69,2 0 0,3 35 274,4 992,9
57 Longaví Norte 05-05-2026 14:00 20,8 68,6 0 0,7 20 280,6 993
56 Longaví Norte 05-05-2026 13:45 21,8 69,8 0 0,7 34 478,1 993,1
55 Longaví Norte 05-05-2026 13:30 19,6 75,5 0 0,3 41 368,1 993,1
54 Longaví Norte 05-05-2026 13:15 19,7 79,3 0 0 29 281,9 993,5
53 Longaví Norte 05-05-2026 13:00 19,1 79,1 0 0 31 235,6 993,9
52 Longaví Norte 05-05-2026 12:45 19,3 77,5 0 0,3 303 436,9 994
51 Longaví Norte 05-05-2026 12:30 18,4 82 0 0,7 271 399,4 994,3
50 Longaví Norte 05-05-2026 12:15 18,1 83,3 0 0,7 263 206,9 994,3
49 Longaví Norte 05-05-2026 12:00 18,3 83 0 0,3 264 266,9 994,3
48 Longaví Norte 05-05-2026 11:45 18,4 83,7 0 0 153 293,1 994,5
47 Longaví Norte 05-05-2026 11:30 17,4 86,2 0 0,3 170 323,1 994,4
46 Longaví Norte 05-05-2026 11:15 17,5 88,5 0 0,3 174 284,4 994,5
45 Longaví Norte 05-05-2026 11:00 16,9 89 0 0,3 125 273,1 994,7
44 Longaví Norte 05-05-2026 10:45 16,3 93,9 0 0 188 261,9 994,8
43 Longaví Norte 05-05-2026 10:30 15,1 98,9 0 0,3 185 215,6 994,8
42 Longaví Norte 05-05-2026 10:15 14,9 100 0 0,3 180 238,1 994,9
41 Longaví Norte 05-05-2026 10:00 13,7 100 0 0,7 204 178,1 994,6
40 Longaví Norte 05-05-2026 09:45 13,4 100 0 1 227 173,1 994,9
39 Longaví Norte 05-05-2026 09:30 13,2 100 0 0,7 219 180,6 994,9
38 Longaví Norte 05-05-2026 09:15 12,7 100 0 0,7 201 129,4 995
37 Longaví Norte 05-05-2026 09:00 12,5 100 0 0 206 118,1 995,5
36 Longaví Norte 05-05-2026 08:45 12,2 100 0 0,3 211 73,1 995,5
35 Longaví Norte 05-05-2026 08:30 12 100 0 0 329 53,1 995,4
34 Longaví Norte 05-05-2026 08:15 11,7 100 0 0 330 50,6 995,8
33 Longaví Norte 05-05-2026 08:00 11,6 100 0 0,3 53 21,9 995,9
32 Longaví Norte 05-05-2026 07:45 11,6 100 0 0,7 178 9,4 995,7
31 Longaví Norte 05-05-2026 07:30 11,5 100 0 0,3 135 0,6 996,3
30 Longaví Norte 05-05-2026 07:15 11,6 100 0 0 55 0,6 995,5
29 Longaví Norte 05-05-2026 07:00 11,6 100 0 0 95 0,6 995,9
28 Longaví Norte 05-05-2026 06:45 11,8 100 0 0,3 334 0,6 995,9
27 Longaví Norte 05-05-2026 06:30 11,9 100 0 0,3 185 0,6 996,7
26 Longaví Norte 05-05-2026 06:15 11,7 100 0 0,3 80 0,6 995,6
25 Longaví Norte 05-05-2026 06:00 11,8 100 0 0,7 309 0,6 996,9
24 Longaví Norte 05-05-2026 05:45 11,6 100 0 0,3 204 0,6 994,9
23 Longaví Norte 05-05-2026 05:30 11,8 100 0 1 331 0,6 996,9
22 Longaví Norte 05-05-2026 05:15 11,5 100 0 0,7 173 0,6 994,2
21 Longaví Norte 05-05-2026 05:00 11,4 100 0 0,3 345 0,6 996,8
20 Longaví Norte 05-05-2026 04:45 11,4 100 0 0,7 309 0,6 996,1
19 Longaví Norte 05-05-2026 04:30 11,1 100 0 0 126 0,6 996,3
18 Longaví Norte 05-05-2026 04:15 11,4 100 0 0,3 229 0,6 996,8
17 Longaví Norte 05-05-2026 04:00 11,3 100 0 0,3 233 0,6 996,4
16 Longaví Norte 05-05-2026 03:45 11,2 100 0 0 195 0,6 996,1
15 Longaví Norte 05-05-2026 03:30 11,2 100 0 0,3 216 0,6 996,1
14 Longaví Norte 05-05-2026 03:15 10,9 100 0 0 195 0,6 996,7
13 Longaví Norte 05-05-2026 03:00 10,5 100 0 0 192 0,6 996,3
12 Longaví Norte 05-05-2026 02:45 10,6 100 0 0 192 0,6 996,3
11 Longaví Norte 05-05-2026 02:30 10,4 100 0 0 192 0,6 996,2
10 Longaví Norte 05-05-2026 02:15 10,1 100 0 0 192 0,6 996,3
9 Longaví Norte 05-05-2026 02:00 10,2 100 0 0 192 0,6 996,6
8 Longaví Norte 05-05-2026 01:45 10,3 100 0 0 192 0,6 996,7
7 Longaví Norte 05-05-2026 01:30 10,3 100 0 0 192 0,6 996,8
6 Longaví Norte 05-05-2026 01:15 10,2 100 0 0 192 0,6 996,9
5 Longaví Norte 05-05-2026 01:00 10,3 100 0 0 192 0,6 997,2
4 Longaví Norte 05-05-2026 00:45 10,4 100 0 0 192 0,6 997,3
3 Longaví Norte 05-05-2026 00:30 10,6 100 0 0 192 0,6 997,3
2 Longaví Norte 05-05-2026 00:15 10,8 100 0 0 192 0,6 997,3
1 Longaví Norte 05-05-2026 00:00 10,8 100 0 0 192 0,6 997,2